User: anonymous   Login
Location: Unspecified
(0.0000°N, 0.0000°E)
Time: 23:07:45
(UTC+00:00)
Language:

ITUPSAT 1 - Orbit

View from above orbital plane
View from above orbital plane
View from above satellite
View from above satellite

Ground track
Ground track

The orbit data is extracted from the following two-line orbital elements,

1 35935U 09051E   18344.09759486  .00000067  00000-0  26464-4 0  9997
2 35935  98.5802 141.6418 0008859  45.7000 314.4922 14.55489356488915
Epoch (UTC): 10 December 2018 02:20:32
Eccentricity: 0.0008859
inclination: 98.5802°
perigee height: 701 km
apogee height: 714 km
right ascension of ascending node: 141.6418°
argument of perigee: 45.7000°
revolutions per day: 14.55489356
mean anomaly at epoch: 314.4922°
orbit number at epoch: 48891

The dashed part of the orbit path shows where the satellite is in the earth's shadow,  

DLR